Location: Schommer Observatory
(40.5200°N, 74.4500°W)
Time: 22:39:27
(UTC-04:00)

Tiangong 2 - Pass Details

Date: 24 May 2018
Orbit: 382 x 385 km, 42.8° (Epoch: 25 May)

Event Time Altitude Azimuth Distance (km) Brightness Sun altitude
Rises 23:19:03 0° 281° (WNW) 2,251 5.4 -24.6°
Reaches altitude 10° 23:21:09 10° 286° (WNW) 1,398 4.4 -24.8°
Enters shadow 23:22:08 18° 291° (WNW) 1,012 3.6 -24.9°
